Location: Eschentzwiller
(47.7125°N, 7.3981°E)
Time: 01:24:58
(UTC+00:00)

Cosmos 2315 Rocket - Pass Details

Date: 27 October 2020
Orbit: 967 x 1002 km, 82.9° (Epoch: 26 November)

Event Time Altitude Azimuth Distance (km) Brightness Sun altitude
Rises 18:06:46 0° 162° (SSE) 3,652 6.8 -18.5°
Reaches altitude 10° 18:09:25 10° 155° (SSE) 2,706 6.1 -18.9°
Maximum altitude 18:15:05 39° 88° (E) 1,407 4.3 -19.9°
Drops below altitude 10° 18:20:46 10° 22° (NNE) 2,718 6.1 -20.8°
Sets 18:23:26 0° 15° (NNE) 3,670 6.9 -21.3°
